RH
26 21 20 18 23 28 30 34 40 43 44 73 58 68 46 62 55 45 48 54 52 41 32 34 37 40 43 53 62 56 52 42 22 7 7 14 20 21 19 20 18 20 27 42
20 18 16 16 24 29 29 34 45 54 54 78 48 50 50 48 50 50 51 47 41 37 37 40 45 46 52 57 57 48 36 12 6 9 14 16 19 21 21 20 22 30 44 100
20 19 17 17 24 29 30 32 47 57 58 52 53 56 58 57 56 55 53 44 39 40 41 40 47 52 53 49 46 22 8 8 13 18 40 46 25 30 25 22 38 62 100 74
21 21 19 16 21 32 36 38 49 60 67 69 70 76 76 54 52 50 43 42 46 46 43 42 48 49 46 42 22 8 10 13 15 21 19 88 37 42 29 44 84 100 63 51
22 20 19 16 19 37 35 45 43 60 67 75 75 69 64 51 49 47 48 50 52 51 54 53 43 41 41 24 8 10 11 12 15 27 56 100 100 33 47 98 97 66 55 51
22 21 20 19 22 30 37 42 42 45 49 51 51 51 56 54 55 58 59 58 51 52 46 46 47 43 22 9 11 12 10 13 16 24 91 100 57 49 98 90 68 58 56 57
20 22 22 21 26 34 40 39 48 59 54 59 61 60 55 54 55 54 48 50 54 54 50 49 42 18 10 12 10 10 14 15 18 45 100 44 41 95 88 62 59 60 62 59
23 25 22 21 25 29 41 58 54 59 64 69 67 62 58 60 58 52 55 59 58 53 50 37 15 11 11 10 10 16 15 15 17 24 37 48 88 88 52 62 67 64 59 57
22 26 26 26 26 30 56 65 71 72 72 70 71 62 63 59 59 63 64 62 54 50 36 15 11 11 10 12 16 15 16 16 20 44 75 88 89 52 45 70 68 65 56 55
25 27 29 28 32 44 59 71 81 83 74 70 65 65 69 72 73 69 68 57 51 32 13 11 11 11 15 20 18 17 18 34 66 81 86 95 70 32 51 74 72 70 53 49
29 30 29 41 58 71 73 89 89 85 75 70 69 75 75 80 79 72 60 54 34 14 11 11 11 16 21 21 19 20 36 67 76 88 96 93 62 40 43 78 75 68 50 45
32 31 40 54 66 72 91 96 90 80 78 82 90 91 93 87 74 64 56 32 14 12 11 11 15 21 21 21 26 29 58 74 75 76 95 91 75 47 49 80 76 59 51 49
36 42 57 74 88 87 90 86 79 78 84 89 96 97 93 77 68 58 29 14 12 11 11 15 20 22 24 28 31 50 72 76 71 74 95 92 77 59 64 82 63 48 48 41
59 61 57 76 96 91 86 84 82 83 85 93 100 96 84 71 58 30 13 12 11 11 14 19 22 25 23 33 34 39 81 80 74 76 93 89 77 63 78 78 55 44 43 37
60 72 88 94 97 93 84 84 81 83 92 100 96 87 73 57 30 15 13 12 10 13 19 19 22 21 22 39 41 37 59 90 78 75 85 94 78 76 88 72 56 45 44 36
75 92 99 98 88 81 84 81 82 89 94 94 88 74 53 29 17 13 12 12 14 19 19 21 18 14 26 40 46 42 51 84 81 80 88 92 88 92 90 71 58 48 47 41
95 93 90 82 77 78 76 80 88 91 96 93 75 52 31 17 14 12 12 15 21 20 23 19 15 15 32 42 45 48 78 87 88 88 97 98 95 96 85 73 61 53 48 52
91 86 82 84 85 82 88 92 99 100 95 78 57 33 20 15 13 12 15 21 21 22 25 19 18 21 41 41 50 81 86 81 84 88 98 99 97 96 88 77 69 58 53 53
96 85 92 99 98 98 100 100 100 95 80 59 34 20 16 14 14 17 21 25 23 25 27 23 19 33 40 46 70 80 82 82 85 94 96 97 97 95 93 85 73 63 56 52
100 100 100 100 100 100 100 100 91 79 49 29 21 17 14 14 18 21 24 26 30 32 33 31 30 43 45 43 62 81 86 84 92 94 95 97 97 96 96 88 72 62 57 55
100 100 99 100 100 100 99 86 61 35 24 21 18 16 14 18 22 25 29 27 33 36 41 42 43 44 51 51 71 91 91 94 87 82 88 99 100 98 94 85 72 64 58 57
99 98 98 100 100 95 66 44 30 25 22 20 18 17 19 23 25 26 35 36 38 40 43 50 56 63 71 68 80 93 90 91 90 91 91 98 100 100 95 89 76 64 59 58
99 98 97 92 70 45 30 27 26 24 21 20 22 23 22 23 29 33 34 46 45 45 46 53 66 78 87 98 99 94 87 87 92 100 100 100 100 100 97 90 76 73 65 60
94 78 53 39 33 31 29 27 26 25 25 24 24 23 23 24 33 50 52 51 50 51 49 52 64 72 78 89 93 94 91 87 95 100 100 100 100 100 100 97 86 82 70 62
45 38 34 33 32 32 34 32 27 28 26 25 27 31 37 44 47 50 61 63 60 68 71 60 62 68 74 80 84 97 100 98 100 100 98 100 100 100 100 100 94 88 83 66
35 34 34 36 37 36 35 33 28 28 32 35 36 44 51 59 68 73 72 71 70 83 87 89 91 90 92 94 95 99 100 100 100 100 100 100 100 100 100 100 100 95 95 83
38 36 38 37 35 33 30 31 35 33 41 45 47 61 70 78 87 86 80 78 87 94 92 90 93 97 100 100 100 100 100 100 100 100 100 100 100 100 100 100 100 99 96 92
Wind_Speed
15 19 23 28 32 37 35 32 30 23 26 24 24 25 29 30 36 42 44 49 52 57 63 69 72 77 81 83 82 84 83 85 84 87 85 81 80 81 79 76 71 63 56 50
20 25 27 28 34 38 37 32 28 31 25 28 30 28 35 37 43 45 49 53 59 64 70 74 77 81 84 86 86 87 86 86 87 90 93 89 85 80 75 71 62 52 46 47
24 28 30 31 35 40 38 34 33 31 29 34 34 37 42 43 44 47 54 60 65 69 74 78 81 84 86 87 85 85 87 89 87 81 75 73 74 74 73 60 47 42 44 47
29 32 33 36 37 41 37 34 31 33 36 38 40 42 46 49 51 56 61 66 69 73 77 82 84 85 85 84 86 87 87 87 81 75 73 64 71 69 55 43 40 42 45 48
35 37 37 36 38 39 41 32 34 32 37 37 39 43 47 52 57 63 65 67 70 75 78 82 87 89 88 87 88 87 88 81 75 70 61 61 70 50 38 40 40 42 46 48
39 42 42 42 44 45 40 37 38 35 38 39 42 46 50 55 58 60 64 69 75 80 85 87 86 87 87 87 88 87 83 74 67 65 52 56 54 35 37 37 41 42 44 48
43 44 43 45 45 44 45 43 41 39 42 43 47 52 56 59 61 66 72 76 80 83 86 85 86 87 89 88 86 79 74 68 62 47 45 44 30 31 32 37 40 41 43 46
45 45 46 48 48 48 48 46 48 46 47 50 54 57 59 62 67 71 75 78 81 84 84 85 86 89 89 84 76 69 68 62 51 38 33 26 26 28 33 38 40 41 44 45
47 46 47 51 51 51 51 51 51 51 53 55 58 60 62 67 71 74 77 80 81 83 84 86 88 89 83 74 68 63 57 46 35 27 23 27 26 29 35 39 40 41 46 43
50 46 47 49 50 56 55 54 54 56 58 58 60 63 66 70 73 76 78 80 81 83 85 86 85 80 71 66 63 55 44 32 26 26 31 28 27 30 36 40 41 42 45 41
49 49 50 50 54 56 55 53 55 58 60 61 64 67 70 73 75 77 78 80 83 84 85 84 79 70 66 62 53 45 33 28 27 31 33 29 29 31 36 40 40 42 44 39
49 52 48 54 55 55 52 53 56 59 62 64 67 70 72 73 76 77 79 81 82 83 83 78 71 66 61 51 43 36 30 27 29 32 32 29 29 33 36 39 39 42 40 36
49 51 53 54 56 56 54 57 59 62 65 68 69 72 73 75 76 79 79 80 82 81 78 72 67 60 53 42 36 31 29 29 30 32 30 28 29 33 35 37 37 41 36 32
48 50 56 55 57 57 56 60 64 68 70 70 71 72 74 75 77 78 78 80 80 77 72 67 60 52 48 38 34 30 29 30 29 31 30 29 30 32 35 34 37 42 34 30
52 55 56 57 56 58 61 65 68 70 70 70 72 73 74 75 76 77 78 80 78 71 68 61 54 49 40 36 33 32 29 30 30 30 31 29 30 31 33 32 37 40 33 28
56 56 56 55 59 62 65 68 70 71 71 71 70 71 73 75 75 76 77 76 71 66 60 56 50 43 34 34 32 32 30 28 28 28 29 28 29 31 30 32 36 39 33 27
55 55 57 60 62 66 69 71 72 71 70 68 69 71 73 73 74 76 74 68 63 59 55 51 45 35 31 31 30 29 27 27 27 27 28 28 28 30 28 32 36 38 35 28
56 58 62 64 68 70 71 70 69 67 66 68 70 72 72 73 75 71 66 60 58 52 50 45 40 33 29 28 27 25 27 27 26 27 26 26 28 27 28 33 36 37 37 30
62 63 65 68 71 70 69 67 66 66 68 70 70 70 71 71 69 63 59 55 53 47 44 40 35 28 26 25 25 26 28 27 26 24 25 26 27 27 29 33 36 38 37 35
66 66 68 69 69 67 64 65 66 68 69 69 70 70 70 67 62 57 55 50 50 45 40 36 32 27 26 26 27 26 26 24 22 23 24 26 26 27 30 33 35 37 37 36
67 69 68 65 62 62 63 65 66 66 66 68 69 69 67 61 56 54 51 47 45 42 37 34 32 28 27 27 26 26 23 20 22 25 27 27 27 28 30 32 34 37 36 36
67 64 61 60 60 61 63 64 65 66 67 68 67 65 62 58 55 51 47 46 42 39 34 31 29 26 25 24 24 22 20 21 25 27 29 28 28 29 30 32 34 36 36 37
58 58 59 60 60 61 63 65 66 67 66 65 63 61 59 56 51 46 41 42 40 36 32 29 27 24 24 24 24 25 24 26 28 29 31 30 29 29 30 31 32 35 36 38
56 57 58 61 62 63 64 65 65 64 63 60 58 56 54 50 44 42 42 41 37 33 30 28 27 25 25 26 27 29 30 29 29 30 31 30 30 31 31 31 32 34 36 38
57 58 60 62 63 62 62 62 63 62 62 59 55 52 50 47 44 42 41 37 33 30 29 29 28 28 29 31 32 32 33 32 31 31 30 30 31 31 30 30 31 32 35 38
57 58 59 59 60 61 62 63 62 60 56 51 49 47 45 43 40 37 34 32 29 28 29 29 29 30 31 32 32 32 32 31 30 31 31 31 32 31 30 30 31 32 34 35
56 57 58 58 59 60 61 59 56 55 50 47 44 41 40 37 33 31 29 27 27 28 31 33 34 35 35 36 35 33 32 31 31 31 31 32 32 31 30 30 31 32 34 36
Wind_Direction
327 332 334 333 337 338 334 325 318 312 307 292 294 293 304 303 300 305 310 314 313 312 314 315 314 313 314 314 315 317 315 316 315 314 312 312 312 311 312 314 313 313 310 309
316 319 322 326 333 337 334 323 313 309 302 286 293 305 300 303 305 310 312 313 313 315 316 315 314 315 317 318 317 317 316 315 315 315 317 318 315 316 315 315 314 311 311 313
313 319 320 321 330 334 333 325 314 309 297 297 303 302 305 306 309 313 313 314 315 314 314 315 316 317 318 318 317 316 317 316 317 318 313 315 316 315 315 317 316 317 317 315
313 317 319 321 326 329 328 322 312 308 304 303 303 305 305 309 315 314 316 316 315 314 315 316 317 316 316 317 318 318 317 315 318 314 316 308 315 315 317 321 322 322 318 318
311 315 317 311 318 325 324 319 314 308 305 305 305 305 309 312 314 315 314 313 312 312 314 314 317 319 319 319 318 317 315 317 315 316 313 297 307 315 322 322 322 323 321 324
308 311 315 315 316 323 322 316 311 308 305 305 306 309 310 311 311 309 309 311 314 316 317 318 318 318 318 318 317 315 316 316 316 314 304 295 305 318 321 326 325 324 325 326
304 307 309 309 312 320 317 317 312 310 309 310 310 311 313 312 311 313 316 317 316 316 317 318 318 318 318 318 317 317 318 319 318 313 298 307 313 320 327 327 327 328 328 328
300 303 306 307 309 314 317 314 310 311 312 312 312 311 312 313 313 315 315 315 315 316 317 319 319 318 318 318 320 321 321 321 320 319 316 316 318 327 330 331 331 331 332 333
301 303 304 307 309 311 317 311 309 311 312 312 311 311 312 312 313 314 314 315 315 317 319 319 319 318 319 321 322 323 322 323 325 332 328 321 324 330 333 334 334 335 336 336
300 303 302 305 305 310 312 311 309 310 311 311 310 312 312 311 312 313 314 315 317 319 320 319 319 320 321 322 323 323 325 326 330 328 326 323 323 329 332 335 335 336 337 338
297 299 301 305 308 308 310 309 309 309 310 310 312 311 311 313 313 313 315 317 319 319 319 319 320 321 321 321 321 322 323 324 324 326 324 319 321 327 331 335 336 336 338 339
295 295 299 303 306 307 308 308 308 308 309 310 308 310 312 312 312 315 317 319 318 318 319 320 320 319 319 319 319 319 319 319 322 326 322 317 321 326 329 334 336 337 338 338
292 297 301 302 303 305 306 306 307 308 309 309 310 310 309 311 315 316 317 317 318 320 321 320 320 320 320 319 317 316 316 316 323 328 323 318 320 324 328 332 336 339 338 338
294 299 303 302 303 304 305 306 309 310 309 309 308 309 312 313 315 316 316 317 320 321 320 320 320 320 320 318 315 314 315 315 325 329 324 320 319 323 328 333 337 339 337 339
298 301 300 301 302 304 306 308 309 308 308 307 309 310 311 313 315 315 317 320 321 320 320 320 321 318 316 315 312 313 311 313 319 326 324 320 321 325 329 334 337 341 337 337
299 299 299 302 304 307 308 309 308 308 307 307 308 311 313 314 316 318 321 321 321 321 321 322 321 317 312 313 310 311 311 311 315 321 321 320 323 325 329 334 336 341 339 334
296 296 299 302 306 308 309 308 308 306 305 307 310 312 314 315 317 320 321 320 320 323 322 323 319 314 312 312 310 310 312 313 315 319 320 320 323 326 330 335 337 340 343 331
296 299 300 303 306 307 305 305 303 303 306 309 311 312 314 316 319 319 319 320 322 323 323 322 319 313 313 312 311 313 313 314 315 319 320 320 323 327 330 334 336 339 341 336
293 297 299 300 303 303 303 302 303 305 307 309 311 314 315 317 318 318 319 321 323 324 323 323 322 315 313 313 313 313 314 314 316 319 320 321 324 326 330 332 335 338 338 338
291 294 298 300 301 301 300 302 304 306 308 310 312 314 316 317 316 317 318 322 322 322 321 321 319 314 313 315 314 315 315 316 321 322 321 322 323 325 327 330 335 337 338 337
290 295 298 299 299 300 302 304 306 308 310 311 313 314 315 314 314 315 317 320 320 320 320 322 318 311 310 313 317 316 317 320 324 326 325 322 321 323 326 330 334 337 339 339
294 295 296 297 299 302 304 305 307 309 310 310 311 311 312 313 312 313 314 317 318 316 317 319 318 317 316 315 316 314 312 317 322 325 325 321 320 321 325 328 334 339 341 343
293 295 299 302 304 305 306 306 307 308 308 310 310 312 311 312 312 311 311 312 315 315 315 314 315 317 319 318 317 314 309 311 319 320 322 319 317 320 323 327 334 339 342 345
300 303 304 305 305 305 305 305 306 307 307 308 310 309 311 312 311 307 310 313 312 313 313 311 309 310 312 313 312 310 309 310 314 318 318 317 314 317 319 324 332 338 342 343
303 304 304 304 304 305 305 305 306 309 310 311 312 312 312 311 310 307 308 310 309 311 315 312 309 308 307 307 307 306 305 307 308 312 314 315 315 315 316 320 328 334 340 342
302 303 304 305 305 306 307 307 310 310 311 310 309 310 311 310 309 310 309 308 307 310 314 315 315 311 310 309 307 306 304 304 306 311 311 310 311 313 314 318 322 329 333 336
303 304 303 303 304 305 307 310 309 310 308 307 308 309 310 311 313 311 310 310 312 314 314 315 314 310 306 304 305 306 305 304 304 306 306 305 306 309 311 313 319 325 328 332